| time (UTC) | temp F | wind direction | speed MPH | gust MPH | rain 1hr in | rain 24hr in | rain mn in | humidity % | barometer mb |
| 20260507070009 | 47 | 297 | 0.0 | 1.0 | 0.00 | 0.55 | 0.11 | 97 | 1008.4 |
| 20260507064504 | 47 | 297 | 0.0 | 1.0 | 0.00 | 0.55 | 0.11 | 97 | 1008.2 |
| 20260507063001 | 47 | 297 | 0.0 | 0.0 | 0.00 | 0.55 | 0.11 | 97 | 1008.2 |
| 20260507061607 | 47 | 297 | 0.0 | 1.0 | 0.00 | 0.55 | 0.11 | 97 | 1008.0 |
| 20260507060058 | 48 | 297 | 0.0 | 1.0 | 0.00 | 0.55 | 0.11 | 97 | 1008.1 |
| 20260507054638 | 48 | 297 | 0.0 | 1.0 | 0.00 | 0.55 | 0.11 | 97 | 1007.9 |
| 20260507053056 | 48 | 297 | 0.0 | 1.0 | 0.00 | 0.55 | 0.11 | 97 | 1007.7 |
| 20260507051553 | 49 | 286 | 0.0 | 2.0 | 0.02 | 0.55 | 0.11 | 97 | 1007.6 |
| 20260507050055 | 50 | 322 | 0.0 | 2.0 | 0.10 | 0.55 | 0.11 | 97 | 1007.9 |
| 20260507044554 | 50 | 328 | 0.0 | 1.0 | 0.11 | 0.55 | 0.11 | 97 | 1007.6 |
| 20260507043046 | 50 | 332 | 0.0 | 2.0 | 0.12 | 0.55 | 0.11 | 97 | 1007.6 |
| 20260507041548 | 51 | 328 | 0.0 | 3.0 | 0.11 | 0.53 | 0.09 | 97 | 1007.9 |
| 20260507040044 | 52 | 284 | 0.0 | 3.0 | 0.03 | 0.45 | 0.01 | 97 | 1007.6 |
| 20260507034542 | 53 | 57 | 0.0 | 1.0 | 0.02 | 0.44 | 0.44 | 98 | 1006.9 |
| 20260507033042 | 53 | 25 | 0.0 | 2.0 | 0.01 | 0.43 | 0.43 | 97 | 1006.9 |
| 20260507031546 | 53 | 131 | 0.0 | 1.0 | 0.00 | 0.42 | 0.42 | 97 | 1006.5 |
| 20260507030048 | 53 | 131 | 0.0 | 1.0 | 0.00 | 0.42 | 0.42 | 97 | 1006.5 |
| 20260507024541 | 53 | 131 | 0.0 | 2.0 | 0.00 | 0.42 | 0.42 | 97 | 1006.6 |
| 20260507023035 | 53 | 148 | 0.0 | 2.0 | 0.01 | 0.42 | 0.42 | 97 | 1006.8 |
| 20260507021536 | 53 | 140 | 0.0 | 4.0 | 0.01 | 0.42 | 0.42 | 97 | 1006.7 |
| 20260507020033 | 53 | 110 | 0.0 | 4.0 | 0.01 | 0.42 | 0.42 | 97 | 1006.9 |
| 20260507014544 | 53 | 166 | 0.0 | 2.0 | 0.01 | 0.43 | 0.42 | 97 | 1006.9 |
| 20260507013031 | 53 | 205 | 0.0 | 3.0 | 0.00 | 0.42 | 0.41 | 97 | 1007.1 |
| 20260507011532 | 54 | 169 | 1.0 | 4.0 | 0.00 | 0.42 | 0.41 | 97 | 1007.1 |
| 20260507010033 | 54 | 200 | 2.0 | 8.0 | 0.00 | 0.42 | 0.41 | 97 | 1007.2 |
| 20260507004526 | 54 | 162 | 1.0 | 6.0 | 0.00 | 0.42 | 0.41 | 97 | 1007.2 |
| 20260507003026 | 54 | 141 | 1.0 | 7.0 | 0.00 | 0.42 | 0.41 | 97 | 1007.2 |
| 20260507001528 | 54 | 273 | 2.0 | 8.0 | 0.00 | 0.42 | 0.41 | 97 | 1007.2 |
| 20260507000032 | 54 | 159 | 2.0 | 6.0 | 0.00 | 0.42 | 0.41 | 97 | 1007.2 |
| 20260506234524 | 54 | 180 | 1.0 | 7.0 | 0.00 | 0.43 | 0.41 | 97 | 1007.2 |
| 20260506233023 | 54 | 109 | 1.0 | 8.0 | 0.00 | 0.43 | 0.41 | 96 | 1007.3 |
| 20260506231521 | 54 | 148 | 2.0 | 7.0 | 0.00 | 0.43 | 0.41 | 96 | 1007.2 |
| 20260506230021 | 55 | 168 | 3.0 | 8.0 | 0.00 | 0.43 | 0.41 | 96 | 1007.3 |
| 20260506224518 | 55 | 127 | 1.0 | 9.0 | 0.00 | 0.43 | 0.41 | 96 | 1007.5 |
| 20260506223016 | 55 | 179 | 2.0 | 5.0 | 0.01 | 0.43 | 0.41 | 96 | 1007.7 |
| 20260506221518 | 55 | 118 | 2.0 | 7.0 | 0.02 | 0.43 | 0.41 | 96 | 1007.8 |
| 20260506220021 | 55 | 157 | 2.0 | 6.0 | 0.03 | 0.43 | 0.41 | 96 | 1007.9 |
| 20260506214513 | 55 | 255 | 1.0 | 4.0 | 0.05 | 0.43 | 0.41 | 96 | 1008.0 |
| 20260506213011 | 55 | 160 | 1.0 | 5.0 | 0.07 | 0.42 | 0.40 | 96 | 1008.2 |
| 20260506211511 | 55 | 148 | 2.0 | 6.0 | 0.07 | 0.41 | 0.39 | 96 | 1008.1 |
| 20260506210010 | 55 | 195 | 2.0 | 7.0 | 0.07 | 0.40 | 0.38 | 96 | 1008.2 |
| 20260506204511 | 55 | 107 | 0.0 | 4.0 | 0.07 | 0.38 | 0.36 | 96 | 1008.2 |
| 20260506203009 | 55 | 146 | 2.0 | 5.0 | 0.06 | 0.35 | 0.33 | 96 | 1008.6 |
| 20260506201507 | 55 | 157 | 1.0 | 5.0 | 0.07 | 0.34 | 0.32 | 95 | 1008.5 |
| 20260506200004 | 56 | 172 | 0.0 | 5.0 | 0.19 | 0.33 | 0.31 | 95 | 1008.8 |
| 20260506194505 | 55 | 123 | 1.0 | 5.0 | 0.25 | 0.31 | 0.28 | 95 | 1008.9 |
| 20260506193002 | 56 | 134 | 0.0 | 6.0 | 0.27 | 0.28 | 0.27 | 95 | 1008.9 |
| 20260506191502 | 56 | 78 | 1.0 | 4.0 | 0.25 | 0.27 | 0.25 | 94 | 1009.0 |
| 20260506190000 | 56 | 165 | 0.0 | 2.0 | 0.10 | 0.12 | 0.10 | 92 | 1009.6 |
| 20260506184601 | 57 | 162 | 2.0 | 4.0 | 0.04 | 0.06 | 0.04 | 88 | 1009.1 |
| 20260506183059 | 59 | 141 | 3.0 | 7.0 | 0.00 | 0.02 | 0.00 | 84 | 1008.9 |
| 20260506181557 | 60 | 148 | 3.0 | 9.0 | 0.00 | 0.02 | 0.00 | 80 | 1008.8 |
| 20260506180105 | 60 | 139 | 2.0 | 7.0 | 0.00 | 0.02 | 0.00 | 80 | 1008.8 |
| 20260506174556 | 60 | 95 | 1.0 | 7.0 | 0.00 | 0.02 | 0.00 | 79 | 1008.9 |
| 20260506173057 | 60 | 117 | 2.0 | 9.0 | 0.00 | 0.02 | 0.00 | 79 | 1009.3 |
| 20260506171556 | 61 | 158 | 2.0 | 7.0 | 0.00 | 0.02 | 0.00 | 79 | 1009.6 |
| 20260506164548 | 62 | 188 | 1.0 | 6.0 | 0.00 | 0.02 | 0.00 | 78 | 1010.2 |
| 20260506163104 | 62 | 105 | 2.0 | 7.0 | 0.00 | 0.02 | 0.00 | 78 | 1010.5 |
| 20260506161542 | 61 | 195 | 3.0 | 7.0 | 0.00 | 0.02 | 0.00 | 78 | 1010.9 |
| 20260506160040 | 60 | 146 | 1.0 | 4.0 | 0.00 | 0.02 | 0.00 | 79 | 1011.2 |
| 20260506154553 | 60 | 102 | 0.0 | 4.0 | 0.00 | 0.02 | 0.00 | 80 | 1011.4 |
| 20260506153049 | 60 | 103 | 1.0 | 2.0 | 0.00 | 0.02 | 0.00 | 80 | 1011.4 |
| 20260506151538 | 60 | 143 | 0.0 | 8.0 | 0.00 | 0.02 | 0.00 | 80 | 1011.4 |
| 20260506150037 | 59 | 100 | 2.0 | 8.0 | 0.00 | 0.02 | 0.00 | 80 | 1011.3 |
| 20260506144536 | 59 | 77 | 0.0 | 5.0 | 0.00 | 0.02 | 0.00 | 80 | 1011.1 |
| 20260506143046 | 60 | 86 | 2.0 | 6.0 | 0.00 | 0.02 | 0.00 | 80 | 1010.7 |
| 20260506141536 | 60 | 256 | 0.0 | 5.0 | 0.00 | 0.02 | 0.00 | 79 | 1011.1 |
| 20260506140031 | 60 | 128 | 2.0 | 5.0 | 0.00 | 0.02 | 0.00 | 79 | 1011.6 |
| 20260506134528 | 59 | 130 | 1.0 | 3.0 | 0.00 | 0.02 | 0.00 | 80 | 1011.5 |
| 20260506133026 | 58 | 165 | 0.0 | 2.0 | 0.00 | 0.02 | 0.00 | 81 | 1011.8 |
| 20260506131523 | 58 | 205 | 0.0 | 1.0 | 0.00 | 0.02 | 0.00 | 81 | 1011.5 |
| 20260506130020 | 57 | 114 | 1.0 | 3.0 | 0.00 | 0.02 | 0.00 | 82 | 1011.5 |
| 20260506124518 | 56 | 94 | 0.0 | 4.0 | 0.00 | 0.02 | 0.00 | 83 | 1011.5 |
| 20260506123018 | 55 | 165 | 1.0 | 3.0 | 0.00 | 0.02 | 0.00 | 84 | 1011.8 |
| 20260506121517 | 54 | 114 | 0.0 | 1.0 | 0.00 | 0.02 | 0.00 | 86 | 1011.9 |
| 20260506120017 | 53 | 108 | 0.0 | 2.0 | 0.00 | 0.02 | 0.00 | 87 | 1012.0 |
| 20260506114517 | 53 | 82 | 0.0 | 1.0 | 0.00 | 0.02 | 0.00 | 87 | 1012.1 |
| 20260506113016 | 52 | 141 | 0.0 | 4.0 | 0.00 | 0.02 | 0.00 | 87 | 1012.4 |
| 20260506111515 | 52 | 87 | 0.0 | 1.0 | 0.00 | 0.02 | 0.00 | 88 | 1012.5 |
| 20260506110014 | 52 | 149 | 0.0 | 2.0 | 0.00 | 0.02 | 0.00 | 89 | 1012.5 |
| 20260506104512 | 52 | 139 | 0.0 | 3.0 | 0.00 | 0.02 | 0.00 | 88 | 1012.4 |
| 20260506103011 | 52 | 144 | 0.0 | 2.0 | 0.00 | 0.02 | 0.00 | 89 | 1012.3 |
| 20260506101511 | 52 | 145 | 0.0 | 1.0 | 0.00 | 0.02 | 0.00 | 89 | 1012.0 |
| 20260506100010 | 52 | 118 | 0.0 | 1.0 | 0.00 | 0.02 | 0.00 | 89 | 1012.1 |
| 20260506094509 | 51 | 163 | 0.0 | 0.0 | 0.00 | 0.02 | 0.00 | 91 | 1012.2 |
| 20260506093007 | 51 | 163 | 0.0 | 0.0 | 0.00 | 0.02 | 0.00 | 92 | 1012.2 |
| 20260506091507 | 52 | 164 | 0.0 | 0.0 | 0.00 | 0.02 | 0.00 | 91 | 1012.0 |
| 20260506090003 | 52 | 163 | 0.0 | 0.0 | 0.00 | 0.02 | 0.00 | 91 | 1011.8 |
| 20260506084501 | 52 | 163 | 0.0 | 0.0 | 0.00 | 0.02 | 0.00 | 90 | 1011.4 |
| 20260506083104 | 53 | 163 | 0.0 | 0.0 | 0.00 | 0.02 | 0.00 | 89 | 1011.3 |
| 20260506083001 | 53 | 164 | 0.0 | 0.0 | 0.00 | 0.02 | 0.00 | 89 | 1011.3 |
| 20260506081559 | 52 | 163 | 0.0 | 0.0 | 0.00 | 0.02 | 0.00 | 89 | 1011.3 |
| 20260506073056 | 52 | 148 | 0.0 | 1.0 | 0.00 | 0.02 | 0.00 | 88 | 1011.2 |
| 20260506071553 | 53 | 142 | 0.0 | 1.0 | 0.00 | 0.02 | 0.00 | 88 | 1011.0 |